Regional Weather Roundup
Issued by NWS Northern Indiana

Home | Current Version | Previous Version | Text Only | Print | Product List | Glossary Off
Versions: 1 2 3 4 5 6 7 8 9 10 11 12 13 14 15 16 17 18 19 20 21 22 23 24 25 26 27 28 29 30 31 32 33 34 35 36 37 38 39 40 41 42 43 44 45 46 47 48 49 50

000
ASUS43 KIWX 011800
RWRIWX

KIWX WEATHER ROUNDUP
NATIONAL WEATHER SERVICE NORTHERN INDIANA
200 PM EDT MON SEP 01 2014

NOTE: "FAIR" INDICATES FEW OR NO CLOUDS BELOW 12,000 FEET WITH NO
SIGNIFICANT WEATHER AND/OR OBSTRUCTIONS TO VISIBILITY.

* THESE STATIONS ARE NOT UNDER NWS QUALITY CONTROL. THEY ALSO MAY NOT
  REPORT WEATHER SUCH AS PRECIPITATION OR FOG.

INZ001>027-011900-
NORTHERN INDIANA

CITY           SKY/WX    TMP DP  RH WIND       PRES   REMARKS
GARY*          PTSUNNY   81  72  74 W17       29.79S
VALPARAISO     CLOUDY    78  71  79 SW12      29.80F
6HR MIN TEMP:  72; 6HR MAX TEMP:  78; 6HR PCP: TRACE;

KNOX*          CLOUDY    77  70  78 SW10G18   29.80S
6HR MIN TEMP:  41; 6HR MAX TEMP:  88;

SOUTH BEND     CLOUDY    79  71  76 SW16G22   29.81R
6HR MIN TEMP:  73; 6HR MAX TEMP:  80;

GOSHEN         CLOUDY    82  70  66 SW23      29.81F
6HR MIN TEMP:  73; 6HR MAX TEMP:  82;

MONTICELLO*    CLOUDY    78  73  83 S15G22    29.82S
6HR MIN TEMP:  72; 6HR MAX TEMP:  78;

ANGOLA*        MOSUNNY   81  75  83 SW14      29.82F
FORT WAYNE     PTSUNNY   82  70  66 SW20G30   29.84F
6HR MIN TEMP:  71; 6HR MAX TEMP:  83;

PERU/GRISSOM   CLOUDY    80  75  86 SW17      29.84S
6HR MIN TEMP:  72; 6HR MAX TEMP:  80;


$$
INZ028>050-011900-
CENTRAL INDIANA

CITY           SKY/WX    TMP DP  RH WIND       PRES   REMARKS
LAFAYETTE      CLOUDY    79  71  76 SW10G18   29.83S
6HR MIN TEMP:  72; 6HR MAX TEMP:  79;

KOKOMO*        CLOUDY    81  72  74 SW16G22   29.85F
6HR MIN TEMP:  72; 6HR MAX TEMP:  81;

MUNCIE*        PTSUNNY   82  70  66 SW12G20   29.88S
6HR MIN TEMP:  73; 6HR MAX TEMP:  82; 6HR PCP:  0.02;

INDIANAPOLIS   CLOUDY    81  71  71 S14       29.87S
6HR MIN TEMP:  73; 6HR MAX TEMP:  81;


$$
MIZ043>046-050>051-056>058-064>065-071>073-077>080-011900-
SOUTHWEST LOWER MICHIGAN

CITY           SKY/WX    TMP DP  RH WIND       PRES   REMARKS
BATTLE CREEK   CLOUDY    79  70  74 SW17G30   29.79F
6HR MIN TEMP:  72; 6HR MAX TEMP:  81;

BENTON HARBOR  LGT RAIN  73  71  93 SW14G26   29.78R FOG
6HR MIN TEMP:  72; 6HR MAX TEMP:  75; 6HR PCP:  0.60;

COLDWATER*     CLOUDY    80  71  74 SW9       29.81F
6HR MIN TEMP:  72; 6HR MAX TEMP:  81;

HILLSDALE*     CLOUDY    82  72  72 S12       29.83F
6HR MIN TEMP:  71; 6HR MAX TEMP:  82;

HOLLAND        LGT RAIN  76  72  87 SW18G28   29.76F
6HR MIN TEMP:  72; 6HR MAX TEMP:  78; 6HR PCP:  0.12;

GRAND RAPIDS   CLOUDY    79  74  84 SW21G30   29.73F
6HR MIN TEMP:  71; 6HR MAX TEMP:  80; 6HR PCP: TRACE;

KALAMAZOO      CLOUDY    79  70  74 S18G30    29.77F
6HR MIN TEMP:  72; 6HR MAX TEMP:  81;

STURGIS*         N/A     79  72  78 S16G28    29.80F
THREE RIVERS*  CLOUDY    81  71  72 S17G24    29.79F

$$
OHZ001>008-015>018-024>025-011900-
NORTHWEST OHIO

CITY           SKY/WX    TMP DP  RH WIND       PRES   REMARKS
DEFIANCE       PTSUNNY   84  69  60 S14G25    29.84F
6HR MIN TEMP:  71; 6HR MAX TEMP:  84;

FINDLAY        PTSUNNY   85  69  58 S20G28    29.87F
6HR MIN TEMP:  70; 6HR MAX TEMP:  86; 6HR PCP: TRACE;

TOLEDO EXPRESS PTSUNNY   84  69  60 SW10G20   29.84F
6HR MIN TEMP:  69; 6HR MAX TEMP:  84;

TOLEDO METCALF PTSUNNY   86  68  54 SW21G28   29.85F
6HR MIN TEMP:  71; 6HR MAX TEMP:  86;

LIMA           MOSUNNY   84  70  62 S15G21    29.89F
6HR MIN TEMP:  72; 6HR MAX TEMP:  85;


$$
&&



USA.gov is the U.S. government's official web portal to all federal, state and local government web resources and services.